Time,TemperatureF,DewpointF,PressureIn,WindDirection,WindDirectionDegrees,WindSpeedMPH,WindSpeedGustMPH,Humidity,HourlyPrecipIn,Conditions,Clouds,dailyrainin,SoftwareType,DateUTC
2013-09-21 00:00:00,81.1,70.8,29.93,East,90,4.0,4.0,71,0.00,,,0.00,Wunderground v.1.15,2013-09-21 04:00:00,
2013-09-21 00:10:00,81.0,71.1,29.93,East,93,3.0,3.0,72,0.00,,,0.00,Wunderground v.1.15,2013-09-21 04:10:00,
2013-09-21 00:20:00,80.8,70.1,29.93,ENE,72,3.0,3.0,70,0.00,,,0.00,Wunderground v.1.15,2013-09-21 04:20:00,
2013-09-21 00:40:00,80.7,70.4,29.92,East,85,4.0,4.0,71,0.00,,,0.00,Wunderground v.1.15,2013-09-21 04:40:00,
2013-09-21 00:50:00,80.6,70.3,29.92,ESE,116,3.0,3.0,71,0.00,,,0.00,Wunderground v.1.15,2013-09-21 04:50:00,
2013-09-21 01:00:00,80.5,70.2,29.92,NE,43,4.0,5.0,71,0.00,,,0.00,Wunderground v.1.15,2013-09-21 05:00:00,
2013-09-21 01:10:00,80.3,70.0,29.92,ENE,70,3.0,3.0,71,0.00,,,0.00,Wunderground v.1.15,2013-09-21 05:10:00,
2013-09-21 01:20:00,80.4,69.7,29.91,ENE,65,3.0,6.0,70,0.00,,,0.00,Wunderground v.1.15,2013-09-21 05:20:00,
2013-09-21 01:30:00,80.5,69.8,29.92,East,89,4.0,4.0,70,0.00,,,0.00,Wunderground v.1.15,2013-09-21 05:30:00,
2013-09-21 01:40:00,80.4,70.1,29.91,NE,37,3.0,5.0,71,0.00,,,0.00,Wunderground v.1.15,2013-09-21 05:40:00,
2013-09-21 01:50:00,80.3,70.0,29.91,NE,39,4.0,4.0,71,0.00,,,0.00,Wunderground v.1.15,2013-09-21 05:50:00,
2013-09-21 02:00:00,80.2,70.4,29.90,NE,53,3.0,4.0,72,0.00,,,0.00,Wunderground v.1.15,2013-09-21 06:00:00,
2013-09-21 02:10:00,80.0,69.7,29.90,NE,41,3.0,4.0,71,0.00,,,0.00,Wunderground v.1.15,2013-09-21 06:10:00,
2013-09-21 02:20:00,80.0,70.2,29.91,ENE,61,3.0,5.0,72,0.00,,,0.00,Wunderground v.1.15,2013-09-21 06:20:00,
2013-09-21 02:30:00,80.1,70.3,29.90,NE,41,3.0,3.0,72,0.00,,,0.00,Wunderground v.1.15,2013-09-21 06:30:00,
2013-09-21 02:40:00,80.3,70.0,29.90,NE,37,3.0,3.0,71,0.00,,,0.00,Wunderground v.1.15,2013-09-21 06:40:00,
2013-09-21 02:50:00,80.2,70.4,29.90,ENE,73,4.0,4.0,72,0.00,,,0.00,Wunderground v.1.15,2013-09-21 06:50:00,
2013-09-21 03:00:00,80.1,70.3,29.90,ENE,75,4.0,4.0,72,0.00,,,0.00,Wunderground v.1.15,2013-09-21 07:00:00,
2013-09-21 03:10:00,79.9,70.1,29.89,ENE,77,3.0,3.0,72,0.00,,,0.00,Wunderground v.1.15,2013-09-21 07:10:00,
2013-09-21 03:20:00,79.8,70.0,29.89,ENE,74,3.0,4.0,72,0.00,,,0.00,Wunderground v.1.15,2013-09-21 07:20:00,
2013-09-21 03:30:00,79.8,70.0,29.88,ENE,65,4.0,4.0,72,0.00,,,0.00,Wunderground v.1.15,2013-09-21 07:30:00,
2013-09-21 03:40:00,79.7,69.9,29.88,NE,40,3.0,3.0,72,0.00,,,0.00,Wunderground v.1.15,2013-09-21 07:40:00,
2013-09-21 03:50:00,79.7,69.9,29.88,ENE,77,3.0,3.0,72,0.00,,,0.00,Wunderground v.1.15,2013-09-21 07:50:00,
2013-09-21 04:00:00,79.6,70.2,29.88,ENE,69,3.0,7.0,73,0.00,,,0.00,Wunderground v.1.15,2013-09-21 08:00:00,
2013-09-21 04:10:00,79.7,70.3,29.87,ENE,63,4.0,4.0,73,0.00,,,0.00,Wunderground v.1.15,2013-09-21 08:10:00,
2013-09-21 04:20:00,79.7,70.3,29.87,ENE,64,4.0,6.0,73,0.00,,,0.00,Wunderground v.1.15,2013-09-21 08:20:00,
2013-09-21 04:30:00,79.5,70.1,29.86,NE,54,3.0,5.0,73,0.00,,,0.00,Wunderground v.1.15,2013-09-21 08:30:00,
2013-09-21 04:40:00,79.4,70.0,29.86,ENE,64,3.0,3.0,73,0.00,,,0.00,Wunderground v.1.15,2013-09-21 08:40:00,
2013-09-21 04:50:00,79.2,69.8,29.86,NE,46,2.0,4.0,73,0.00,,,0.00,Wunderground v.1.15,2013-09-21 08:50:00,
2013-09-21 05:00:00,79.2,69.8,29.87,NE,53,3.0,3.0,73,0.00,,,0.00,Wunderground v.1.15,2013-09-21 09:00:00,
2013-09-21 05:10:00,79.2,69.8,29.87,ENE,65,2.0,4.0,73,0.00,,,0.00,Wunderground v.1.15,2013-09-21 09:10:00,
2013-09-21 05:20:00,79.2,69.8,29.86,ENE,63,3.0,3.0,73,0.00,,,0.00,Wunderground v.1.15,2013-09-21 09:20:00,
2013-09-21 05:30:00,79.1,70.1,29.86,ENE,67,2.0,2.0,74,0.00,,,0.00,Wunderground v.1.15,2013-09-21 09:30:00,
2013-09-21 05:40:00,79.1,70.1,29.86,NNE,22,2.0,2.0,74,0.00,,,0.00,Wunderground v.1.15,2013-09-21 09:40:00,
2013-09-21 05:50:00,79.2,70.2,29.87,ENE,61,3.0,3.0,74,0.00,,,0.00,Wunderground v.1.15,2013-09-21 09:50:00,
2013-09-21 06:00:00,79.3,70.3,29.87,NE,45,2.0,5.0,74,0.00,,,0.00,Wunderground v.1.15,2013-09-21 10:00:00,
2013-09-21 06:10:00,79.4,70.4,29.86,ENE,70,3.0,3.0,74,0.00,,,0.00,Wunderground v.1.15,2013-09-21 10:10:00,
2013-09-21 06:20:00,79.4,70.4,29.86,ENE,67,3.0,4.0,74,0.00,,,0.00,Wunderground v.1.15,2013-09-21 10:20:00,
2013-09-21 06:30:00,79.4,70.4,29.86,East,90,3.0,3.0,74,0.00,,,0.00,Wunderground v.1.15,2013-09-21 10:30:00,
2013-09-21 06:40:00,79.3,70.3,29.86,ENE,67,3.0,3.0,74,0.00,,,0.00,Wunderground v.1.15,2013-09-21 10:40:00,
2013-09-21 06:50:00,79.4,70.8,29.86,ENE,76,3.0,3.0,75,0.00,,,0.00,Wunderground v.1.15,2013-09-21 10:50:00,
2013-09-21 07:00:00,79.2,70.6,29.86,ENE,63,2.0,2.0,75,0.00,,,0.00,Wunderground v.1.15,2013-09-21 11:00:00,
2013-09-21 07:10:00,79.2,71.0,29.86,ENE,57,2.0,3.0,76,0.00,,,0.00,Wunderground v.1.15,2013-09-21 11:10:00,
2013-09-21 07:20:00,79.2,70.6,29.86,East,84,2.0,2.0,75,0.00,,,0.00,Wunderground v.1.15,2013-09-21 11:20:00,
2013-09-21 07:30:00,79.3,70.7,29.86,East,85,2.0,2.0,75,0.00,,,0.00,Wunderground v.1.15,2013-09-21 11:30:00,
2013-09-21 07:40:00,79.3,70.7,29.86,East,82,2.0,2.0,75,0.00,,,0.00,Wunderground v.1.15,2013-09-21 11:40:00,
2013-09-21 07:50:00,79.5,70.9,29.87,ENE,60,2.0,2.0,75,0.00,,,0.00,Wunderground v.1.15,2013-09-21 11:50:00,
2013-09-21 08:00:00,79.9,70.9,29.87,East,81,2.0,2.0,74,0.00,,,0.00,Wunderground v.1.15,2013-09-21 12:00:00,
2013-09-21 08:10:00,80.4,71.3,29.87,ENE,78,2.0,3.0,74,0.00,,,0.00,Wunderground v.1.15,2013-09-21 12:10:00,
2013-09-21 08:20:00,81.2,71.3,29.88,ENE,57,2.0,3.0,72,0.00,,,0.00,Wunderground v.1.15,2013-09-21 12:20:00,
2013-09-21 08:30:00,81.4,71.5,29.88,NE,39,2.0,3.0,72,0.00,,,0.00,Wunderground v.1.15,2013-09-21 12:30:00,
2013-09-21 08:40:00,82.1,71.8,29.88,ENE,71,3.0,6.0,71,0.00,,,0.00,Wunderground v.1.15,2013-09-21 12:40:00,
2013-09-21 08:50:00,82.2,71.4,29.88,ENE,71,4.0,7.0,70,0.00,,,0.00,Wunderground v.1.15,2013-09-21 12:50:00,
2013-09-21 09:00:00,82.3,72.0,29.88,ENE,71,5.0,5.0,71,0.00,,,0.00,Wunderground v.1.15,2013-09-21 13:00:00,
2013-09-21 09:10:00,82.6,71.8,29.89,ENE,69,4.0,4.0,70,0.00,,,0.00,Wunderground v.1.15,2013-09-21 13:10:00,
2013-09-21 09:20:00,83.2,71.5,29.89,ESE,110,3.0,3.0,68,0.00,,,0.00,Wunderground v.1.15,2013-09-21 13:20:00,
2013-09-21 09:30:00,83.8,72.1,29.89,ENE,61,3.0,4.0,68,0.00,,,0.00,Wunderground v.1.15,2013-09-21 13:30:00,
2013-09-21 09:40:00,83.3,71.6,29.89,ESE,103,4.0,4.0,68,0.00,,,0.00,Wunderground v.1.15,2013-09-21 13:40:00,
2013-09-21 09:50:00,83.2,71.5,29.89,ESE,112,4.0,4.0,68,0.00,,,0.00,Wunderground v.1.15,2013-09-21 13:50:00,
2013-09-21 10:00:00,83.2,71.5,29.89,ESE,122,4.0,5.0,68,0.00,,,0.00,Wunderground v.1.15,2013-09-21 14:00:00,
2013-09-21 10:10:00,83.1,71.4,29.90,East,81,5.0,8.0,68,0.00,,,0.00,Wunderground v.1.15,2013-09-21 14:10:00,
2013-09-21 10:20:00,83.5,72.3,29.90,NNE,23,4.0,4.0,69,0.00,,,0.00,Wunderground v.1.15,2013-09-21 14:20:00,
2013-09-21 10:30:00,83.9,72.6,29.90,ESE,108,4.0,6.0,69,0.00,,,0.00,Wunderground v.1.15,2013-09-21 14:30:00,
2013-09-21 10:40:00,83.9,73.1,29.90,ESE,113,4.0,4.0,70,0.00,,,0.00,Wunderground v.1.15,2013-09-21 14:40:00,
2013-09-21 10:50:00,84.1,72.8,29.90,SE,124,3.0,3.0,69,0.00,,,0.00,Wunderground v.1.15,2013-09-21 14:50:00,
2013-09-21 11:00:00,84.1,72.8,29.90,SE,127,3.0,3.0,69,0.00,,,0.00,Wunderground v.1.15,2013-09-21 15:00:00,
2013-09-21 11:20:00,84.9,73.2,29.90,ENE,65,3.0,5.0,68,0.00,,,0.00,Wunderground v.1.15,2013-09-21 15:20:00,
2013-09-21 11:30:00,83.8,72.5,29.90,ESE,110,4.0,4.0,69,0.00,,,0.00,Wunderground v.1.15,2013-09-21 15:30:00,
2013-09-21 11:40:00,84.3,72.6,29.90,SE,132,4.0,6.0,68,0.00,,,0.00,Wunderground v.1.15,2013-09-21 15:40:00,
2013-09-21 11:50:00,84.0,72.7,29.90,NE,56,4.0,4.0,69,0.00,,,0.00,Wunderground v.1.15,2013-09-21 15:50:00,
2013-09-21 12:00:00,84.8,72.6,29.89,SE,124,4.0,4.0,67,0.00,,,0.00,Wunderground v.1.15,2013-09-21 16:00:00,
2013-09-21 12:10:00,85.4,72.3,29.89,ESE,113,4.0,4.0,65,0.00,,,0.00,Wunderground v.1.15,2013-09-21 16:10:00,
2013-09-21 12:20:00,85.7,72.1,29.89,ESE,103,4.0,5.0,64,0.00,,,0.00,Wunderground v.1.15,2013-09-21 16:20:00,
2013-09-21 12:30:00,85.6,71.6,29.89,NNE,32,5.0,5.0,63,0.00,,,0.00,Wunderground v.1.15,2013-09-21 16:30:00,
2013-09-21 12:40:00,86.0,71.9,29.88,ENE,72,5.0,5.0,63,0.00,,,0.00,Wunderground v.1.15,2013-09-21 16:40:00,
2013-09-21 12:50:00,85.8,72.7,29.88,East,82,5.0,5.0,65,0.00,,,0.00,Wunderground v.1.15,2013-09-21 16:50:00,
2013-09-21 13:00:00,86.2,72.6,29.88,ESE,116,4.0,5.0,64,0.00,,,0.00,Wunderground v.1.15,2013-09-21 17:00:00,
2013-09-21 13:10:00,85.9,72.3,29.87,East,84,4.0,6.0,64,0.00,,,0.00,Wunderground v.1.15,2013-09-21 17:10:00,
2013-09-21 13:20:00,85.5,72.4,29.87,ENE,65,5.0,5.0,65,0.00,,,0.00,Wunderground v.1.15,2013-09-21 17:20:00,
2013-09-21 13:30:00,85.4,72.7,29.86,SE,128,4.0,6.0,66,0.00,,,0.00,Wunderground v.1.15,2013-09-21 17:30:00,
2013-09-21 13:40:00,85.8,72.7,29.86,ESE,105,4.0,4.0,65,0.00,,,0.00,Wunderground v.1.15,2013-09-21 17:40:00,
2013-09-21 13:50:00,85.1,72.5,29.85,SSE,166,5.0,5.0,66,0.00,,,0.00,Wunderground v.1.15,2013-09-21 17:50:00,
2013-09-21 14:00:00,85.6,72.0,29.85,ENE,74,4.0,4.0,64,0.00,,,0.00,Wunderground v.1.15,2013-09-21 18:00:00,
2013-09-21 14:10:00,85.6,72.5,29.85,ESE,112,4.0,6.0,65,0.00,,,0.00,Wunderground v.1.15,2013-09-21 18:10:00,
2013-09-21 14:20:00,85.9,72.8,29.84,SSE,150,4.0,4.0,65,0.00,,,0.00,Wunderground v.1.15,2013-09-21 18:20:00,
2013-09-21 14:30:00,85.4,72.7,29.84,East,79,5.0,5.0,66,0.00,,,0.00,Wunderground v.1.15,2013-09-21 18:30:00,
2013-09-21 14:40:00,85.2,72.6,29.84,East,88,5.0,5.0,66,0.00,,,0.00,Wunderground v.1.15,2013-09-21 18:40:00,
2013-09-21 14:50:00,84.8,72.2,29.83,ESE,115,5.0,6.0,66,0.00,,,0.00,Wunderground v.1.15,2013-09-21 18:50:00,
2013-09-21 15:00:00,85.7,73.0,29.83,ESE,105,4.0,4.0,66,0.00,,,0.00,Wunderground v.1.15,2013-09-21 19:00:00,
2013-09-21 15:10:00,85.8,72.7,29.83,East,87,4.0,5.0,65,0.00,,,0.00,Wunderground v.1.15,2013-09-21 19:10:00,
2013-09-21 15:20:00,85.3,71.7,29.82,East,92,5.0,5.0,64,0.00,,,0.00,Wunderground v.1.15,2013-09-21 19:20:00,
2013-09-21 15:30:00,85.6,72.5,29.82,SE,124,5.0,5.0,65,0.00,,,0.00,Wunderground v.1.15,2013-09-21 19:30:00,
2013-09-21 15:40:00,85.7,73.5,29.82,ESE,116,4.0,4.0,67,0.00,,,0.00,Wunderground v.1.15,2013-09-21 19:40:00,
2013-09-21 15:50:00,86.0,72.4,29.82,ESE,108,4.0,5.0,64,0.00,,,0.00,Wunderground v.1.15,2013-09-21 19:50:00,
2013-09-21 16:00:00,85.2,72.6,29.81,ENE,71,5.0,5.0,66,0.00,,,0.00,Wunderground v.1.15,2013-09-21 20:00:00,
2013-09-21 16:10:00,84.9,72.3,29.81,SE,141,5.0,5.0,66,0.00,,,0.00,Wunderground v.1.15,2013-09-21 20:10:00,
2013-09-21 16:20:00,85.0,71.9,29.80,ENE,77,4.0,5.0,65,0.00,,,0.00,Wunderground v.1.15,2013-09-21 20:20:00,
2013-09-21 16:30:00,84.1,72.0,29.80,ESE,113,4.0,6.0,67,0.00,,,0.00,Wunderground v.1.15,2013-09-21 20:30:00,
2013-09-21 16:40:00,84.2,72.0,29.80,SE,127,5.0,5.0,67,0.00,,,0.00,Wunderground v.1.15,2013-09-21 20:40:00,
2013-09-21 16:50:00,84.4,72.7,29.80,ESE,105,4.0,4.0,68,0.00,,,0.00,Wunderground v.1.15,2013-09-21 20:50:00,
2013-09-21 17:00:00,84.4,71.8,29.80,East,92,4.0,6.0,66,0.00,,,0.00,Wunderground v.1.15,2013-09-21 21:00:00,
2013-09-21 17:10:00,84.4,72.2,29.80,SSE,165,5.0,5.0,67,0.00,,,0.00,Wunderground v.1.15,2013-09-21 21:10:00,
2013-09-21 17:20:00,84.7,73.0,29.80,ESE,115,4.0,6.0,68,0.00,,,0.00,Wunderground v.1.15,2013-09-21 21:20:00,
2013-09-21 17:30:00,83.7,71.6,29.80,SE,130,4.0,4.0,67,0.00,,,0.00,Wunderground v.1.15,2013-09-21 21:30:00,
2013-09-21 17:40:00,83.6,71.9,29.80,ESE,112,4.0,4.0,68,0.00,,,0.00,Wunderground v.1.15,2013-09-21 21:40:00,
2013-09-21 17:50:00,83.1,71.9,29.80,SE,124,5.0,5.0,69,0.00,,,0.00,Wunderground v.1.15,2013-09-21 21:50:00,
2013-09-21 18:00:00,83.3,71.6,29.79,ENE,65,4.0,4.0,68,0.00,,,0.00,Wunderground v.1.15,2013-09-21 22:00:00,
2013-09-21 18:10:00,83.4,72.2,29.79,SE,124,4.0,4.0,69,0.00,,,0.00,Wunderground v.1.15,2013-09-21 22:10:00,
2013-09-21 18:20:00,83.4,72.2,29.79,SE,131,4.0,4.0,69,0.00,,,0.00,Wunderground v.1.15,2013-09-21 22:20:00,
2013-09-21 18:30:00,83.3,71.6,29.80,SE,131,3.0,4.0,68,0.00,,,0.00,Wunderground v.1.15,2013-09-21 22:30:00,
2013-09-21 18:40:00,83.1,71.4,29.79,East,90,3.0,6.0,68,0.00,,,0.00,Wunderground v.1.15,2013-09-21 22:40:00,
2013-09-21 18:50:00,82.7,71.9,29.80,ENE,73,4.0,4.0,70,0.00,,,0.00,Wunderground v.1.15,2013-09-21 22:50:00,
2013-09-21 19:00:00,82.4,71.6,29.80,SSE,156,3.0,3.0,70,0.00,,,0.00,Wunderground v.1.15,2013-09-21 23:00:00,
2013-09-21 19:10:00,82.2,71.4,29.80,East,81,3.0,4.0,70,0.00,,,0.00,Wunderground v.1.15,2013-09-21 23:10:00,
2013-09-21 19:20:00,81.8,71.5,29.80,ESE,119,3.0,3.0,71,0.00,,,0.00,Wunderground v.1.15,2013-09-21 23:20:00,
2013-09-21 19:30:00,81.6,71.3,29.80,East,87,3.0,3.0,71,0.00,,,0.00,Wunderground v.1.15,2013-09-21 23:30:00,
2013-09-21 19:40:00,81.6,71.3,29.81,East,98,3.0,3.0,71,0.00,,,0.00,Wunderground v.1.15,2013-09-21 23:40:00,
2013-09-21 19:50:00,81.6,71.7,29.81,East,99,3.0,3.0,72,0.00,,,0.00,Wunderground v.1.15,2013-09-21 23:50:00,
2013-09-21 20:00:00,81.6,71.7,29.81,ENE,70,2.0,2.0,72,0.00,,,0.00,Wunderground v.1.15,2013-09-22 00:00:00,
2013-09-21 20:10:00,81.5,72.0,29.81,ESE,122,3.0,3.0,73,0.00,,,0.00,Wunderground v.1.15,2013-09-22 00:10:00,
2013-09-21 20:20:00,81.6,72.5,29.82,ESE,105,3.0,3.0,74,0.00,,,0.00,Wunderground v.1.15,2013-09-22 00:20:00,
2013-09-21 20:30:00,81.6,72.5,29.82,ESE,121,3.0,4.0,74,0.00,,,0.00,Wunderground v.1.15,2013-09-22 00:30:00,
2013-09-21 20:40:00,81.5,72.0,29.82,SE,124,3.0,3.0,73,0.00,,,0.00,Wunderground v.1.15,2013-09-22 00:40:00,
2013-09-21 20:50:00,81.5,72.0,29.83,ESE,114,2.0,2.0,73,0.00,,,0.00,Wunderground v.1.15,2013-09-22 00:50:00,
2013-09-21 21:00:00,81.6,72.1,29.83,SE,133,3.0,5.0,73,0.00,,,0.00,Wunderground v.1.15,2013-09-22 01:00:00,
2013-09-21 21:10:00,81.5,72.0,29.83,East,85,3.0,3.0,73,0.00,,,0.00,Wunderground v.1.15,2013-09-22 01:10:00,
2013-09-21 21:20:00,81.5,72.0,29.84,ESE,118,2.0,2.0,73,0.00,,,0.00,Wunderground v.1.15,2013-09-22 01:20:00,
2013-09-21 21:30:00,81.5,72.4,29.84,SE,127,3.0,4.0,74,0.00,,,0.00,Wunderground v.1.15,2013-09-22 01:30:00,
2013-09-21 21:40:00,81.5,72.8,29.84,ESE,110,3.0,5.0,75,0.00,,,0.00,Wunderground v.1.15,2013-09-22 01:40:00,
2013-09-21 21:50:00,81.3,72.2,29.84,ESE,103,3.0,3.0,74,0.00,,,0.00,Wunderground v.1.15,2013-09-22 01:50:00,
2013-09-21 22:00:00,81.3,72.2,29.84,ESE,121,3.0,3.0,74,0.00,,,0.00,Wunderground v.1.15,2013-09-22 02:00:00,
2013-09-21 22:10:00,81.3,72.6,29.84,East,95,2.0,3.0,75,0.00,,,0.00,Wunderground v.1.15,2013-09-22 02:10:00,
2013-09-21 22:20:00,81.3,72.6,29.84,ESE,113,3.0,3.0,75,0.00,,,0.00,Wunderground v.1.15,2013-09-22 02:20:00,
2013-09-21 22:30:00,81.1,72.4,29.85,SSE,163,3.0,3.0,75,0.00,,,0.00,Wunderground v.1.15,2013-09-22 02:30:00,
2013-09-21 22:40:00,81.2,72.1,29.84,SSW,198,3.0,3.0,74,0.00,,,0.00,Wunderground v.1.15,2013-09-22 02:40:00,
2013-09-21 22:50:00,81.2,72.5,29.85,SE,132,3.0,3.0,75,0.00,,,0.00,Wunderground v.1.15,2013-09-22 02:50:00,
2013-09-21 23:00:00,81.3,73.0,29.85,SSE,165,3.0,6.0,76,0.00,,,0.00,Wunderground v.1.15,2013-09-22 03:00:00,
2013-09-21 23:10:00,81.2,72.9,29.85,SE,136,3.0,3.0,76,0.00,,,0.00,Wunderground v.1.15,2013-09-22 03:10:00,
2013-09-21 23:20:00,81.2,72.9,29.85,SE,138,3.0,3.0,76,0.00,,,0.00,Wunderground v.1.15,2013-09-22 03:20:00,
2013-09-21 23:30:00,81.1,73.2,29.85,South,184,2.0,2.0,77,0.00,,,0.00,Wunderground v.1.15,2013-09-22 03:30:00,
2013-09-21 23:40:00,81.1,73.2,29.85,South,177,2.0,2.0,77,0.00,,,0.00,Wunderground v.1.15,2013-09-22 03:40:00,
2013-09-21 23:50:00,81.1,73.2,29.84,SSE,158,2.0,2.0,77,0.00,,,0.00,Wunderground v.1.15,2013-09-22 03:50:00,